Clinton, OK

11:46 AM CDT on August 27, 2016 (GMT -0500)
Clinton Municipal

Weather History for KCLK - January, 2014

Change the Weather History Date:

Monday, January 27, 2014

  Actual Average (KCSM) Record (KCSM)
Temperature  
Mean Temperature 25 °F -  
Max Temperature 33 °F 48 °F 75 °F (2015)
Min Temperature 17 °F 28 °F 10 °F (2009)
Degree Days  
Heating Degree Days 40    
Moisture  
Dew Point -11 °F    
Average Humidity 25    
Maximum Humidity 53    
Minimum Humidity 13    
Precipitation  
Precipitation 0.00 in - - ()
Sea Level Pressure  
Sea Level Pressure 30.34 in    
Wind  
Wind Speed 24 mph (NNE)    
Max Wind Speed 36 mph    
Max Gust Speed 45 mph    
Visibility 10 miles    
Events      
Averages and records for this station are not official NWS values.
T = Trace of Precipitation, MM = Missing Value Source: NWS Daily Summary

Daily Weather History Graph

Daily Weather History Graph

Search for Another Location

Airport or City:

Trip Planner

Search our weather history database for the weather conditions in past years. The results will help you decide how hot, cold, wet, or windy it might be!

Date:

Astronomy

Jan. 27, 2014 Rise Set
Actual Time 7:38 AM CST 5:58 PM CST
Civil Twilight 7:11 AM CST 6:25 PM CST
Nautical Twilight 6:41 AM CST 6:56 PM CST
Astronomical Twilight 6:11 AM CST 7:26 PM CST
Moon 4:20 AM CST 2:47 PM CST
Length of Visible Light 11h 13m
Length of Day
10h 19m
Waning Crescent, 14% of the Moon is Illuminated
Jan 27
Waning Crescent
Jan 30
New
Feb 6
First Quarter
Feb 14
Full
Feb 22
Last Quarter

Hourly Weather History & Observations

Time (CST) Temp. Windchill Dew Point Humidity Pressure Visibility Wind Dir Wind Speed Gust Speed Precip Events Conditions
12:15 AM 33.8 °F 19.0 °F 15.8 °F 48% 30.08 in 10.0 mi NNE 35.7 mph 41.4 mph N/A   Clear
12:35 AM 33.8 °F 19.4 °F 15.8 °F 48% 30.09 in 10.0 mi NNE 33.4 mph 40.3 mph N/A   Clear
12:55 AM 33.8 °F 19.6 °F 8.6 °F 35% 30.11 in 10.0 mi NNE 32.2 mph 44.9 mph N/A   Clear
1:15 AM 32.0 °F 17.9 °F 5.0 °F 32% 30.12 in 10.0 mi NNE 28.8 mph 39.1 mph N/A   Clear
1:35 AM 32.0 °F 17.6 °F 3.2 °F 30% 30.14 in 10.0 mi NNE 29.9 mph 39.1 mph N/A   Clear
1:55 AM 30.2 °F 14.7 °F 1.4 °F 29% 30.15 in 10.0 mi NNE 32.2 mph 40.3 mph N/A   Clear
2:15 AM 28.4 °F 11.6 °F -4.0 °F 25% 30.17 in 10.0 mi NNE 35.7 mph 42.6 mph N/A   Clear
2:35 AM 28.4 °F 12.5 °F -4.0 °F 25% 30.18 in 10.0 mi NNE 31.1 mph 43.7 mph N/A   Clear
2:55 AM 28.4 °F 13.0 °F -4.0 °F 25% 30.22 in 10.0 mi North 28.8 mph 38.0 mph N/A   Clear
3:15 AM 26.6 °F 10.3 °F -4.0 °F 26% 30.22 in 10.0 mi NNE 29.9 mph 33.4 mph N/A   Clear
3:35 AM 26.6 °F 12.0 °F -4.0 °F 26% 30.24 in 10.0 mi NNE 23.0 mph 31.1 mph N/A   Clear
3:55 AM 26.6 °F 10.8 °F -9.4 °F 21% 30.25 in 10.0 mi NNE 27.6 mph 34.5 mph N/A   Clear
4:15 AM 24.8 °F 8.1 °F -16.6 °F 16% 30.26 in 10.0 mi NNE 28.8 mph 36.8 mph N/A   Clear
4:35 AM 23.0 °F 6.3 °F -16.6 °F 17% 30.26 in 10.0 mi North 26.5 mph 35.7 mph N/A   Clear
4:55 AM 23.0 °F 5.1 °F -16.6 °F 17% 30.28 in 10.0 mi North 31.1 mph 35.7 mph N/A   Clear
5:15 AM 23.0 °F 5.4 °F -22.0 °F 13% 30.29 in 10.0 mi NNE 29.9 mph 38.0 mph N/A   Clear
5:35 AM 21.2 °F 5.2 °F -18.4 °F 17% 30.31 in 10.0 mi NNE 21.9 mph 29.9 mph N/A   Clear
5:55 AM 21.2 °F 3.3 °F -18.4 °F 17% 30.31 in 10.0 mi NNE 28.8 mph 33.4 mph N/A   Clear
6:15 AM 21.2 °F 4.9 °F -16.6 °F 18% 30.32 in 10.0 mi NNE 23.0 mph 31.1 mph N/A   Clear
6:35 AM 19.4 °F 3.6 °F -16.6 °F 20% 30.33 in 10.0 mi NNE 19.6 mph 25.3 mph N/A   Clear
6:55 AM 19.4 °F 5.0 °F -14.8 °F 21% 30.34 in 10.0 mi NNE 16.1 mph - N/A   Clear
7:15 AM 19.4 °F 3.6 °F -14.8 °F 21% 30.35 in 10.0 mi NNE 19.6 mph 24.2 mph N/A   Clear
7:35 AM 19.4 °F 4.5 °F -14.8 °F 21% 30.37 in 10.0 mi NNE 17.3 mph - N/A   Clear
7:55 AM 19.4 °F 2.5 °F -14.8 °F 21% 30.36 in 10.0 mi NNE 23.0 mph 26.5 mph N/A   Clear
8:15 AM 19.4 °F 2.1 °F -14.8 °F 21% 30.37 in 10.0 mi North 24.2 mph 31.1 mph N/A   Clear
8:35 AM 21.2 °F 6.0 °F -14.8 °F 20% 30.37 in 10.0 mi North 19.6 mph 25.3 mph N/A   Clear
8:55 AM 21.2 °F 4.5 °F -14.8 °F 20% 30.38 in 10.0 mi NNE 24.2 mph 27.6 mph N/A   Clear
9:15 AM 21.2 °F 3.9 °F -14.8 °F 20% 30.39 in 10.0 mi NNE 26.5 mph 29.9 mph N/A   Clear
9:35 AM 21.2 °F 4.9 °F -16.6 °F 18% 30.41 in 10.0 mi NNE 23.0 mph 29.9 mph N/A   Clear
9:55 AM 21.2 °F 5.2 °F -16.6 °F 18% 30.41 in 10.0 mi NNE 21.9 mph - N/A   Clear
10:15 AM 21.2 °F 5.6 °F -14.8 °F 20% 30.42 in 10.0 mi NNE 20.7 mph - N/A   Mostly Cloudy
10:35 AM 23.0 °F 8.3 °F -14.8 °F 18% 30.43 in 10.0 mi NNE 19.6 mph - N/A   Overcast
10:55 AM 23.0 °F 9.2 °F -14.8 °F 18% 30.43 in 10.0 mi NNE 17.3 mph 25.3 mph N/A   Overcast
11:15 AM 23.0 °F 8.3 °F -14.8 °F 18% 30.44 in 10.0 mi North 19.6 mph 23.0 mph N/A   Overcast
11:35 AM 23.0 °F 8.7 °F -14.8 °F 18% 30.43 in 10.0 mi NNE 18.4 mph 23.0 mph N/A   Overcast
11:55 AM 24.8 °F 10.7 °F -14.8 °F 17% 30.43 in 10.0 mi NNE 19.6 mph 25.3 mph N/A   Overcast
12:15 PM 24.8 °F 11.5 °F -13.0 °F 19% 30.42 in 10.0 mi NNE 17.3 mph - N/A   Overcast
12:35 PM 23.0 °F 9.6 °F -14.8 °F 18% 30.41 in 10.0 mi North 16.1 mph 23.0 mph N/A   Overcast
12:55 PM 23.0 °F 9.2 °F -14.8 °F 18% 30.40 in 10.0 mi NNE 17.3 mph 21.9 mph N/A   Overcast
1:15 PM 23.0 °F 8.7 °F -16.6 °F 17% 30.40 in 10.0 mi NNE 18.4 mph - N/A   Overcast
1:35 PM 24.8 °F 11.9 °F -14.8 °F 17% 30.39 in 10.0 mi North 16.1 mph 20.7 mph N/A   Overcast
1:55 PM 23.0 °F 10.6 °F -14.8 °F 18% 30.39 in 10.0 mi NNE 13.8 mph - N/A   Overcast
2:15 PM 23.0 °F 8.7 °F -16.6 °F 17% 30.39 in 10.0 mi NNE 18.4 mph 21.9 mph N/A   Overcast
2:35 PM 23.0 °F 8.7 °F -16.6 °F 17% 30.38 in 10.0 mi NNE 18.4 mph - N/A   Overcast
2:55 PM 23.0 °F 9.2 °F -16.6 °F 17% 30.37 in 10.0 mi North 17.3 mph - N/A   Overcast
3:15 PM 23.0 °F 9.6 °F -16.6 °F 17% 30.36 in 10.0 mi NNE 16.1 mph 23.0 mph N/A   Overcast
3:35 PM 21.2 °F 7.3 °F -16.6 °F 18% 30.36 in 10.0 mi NNE 16.1 mph - N/A   Overcast
3:55 PM 21.2 °F 6.8 °F -16.6 °F 18% 30.36 in 10.0 mi NNE 17.3 mph - N/A   Overcast
4:15 PM 21.2 °F 6.4 °F -18.4 °F 17% 30.37 in 10.0 mi NNE 18.4 mph - N/A   Overcast
4:35 PM 21.2 °F 7.8 °F -16.6 °F 18% 30.37 in 10.0 mi NNE 15.0 mph - N/A   Overcast
4:55 PM 21.2 °F 8.3 °F -16.6 °F 18% 30.37 in 10.0 mi NNE 13.8 mph - N/A   Overcast
5:15 PM 21.2 °F 7.8 °F -16.6 °F 18% 30.37 in 10.0 mi NNE 15.0 mph - N/A   Overcast
5:35 PM 21.2 °F 7.8 °F -16.6 °F 18% 30.36 in 10.0 mi NNE 15.0 mph - N/A   Overcast
5:55 PM 19.4 °F 5.5 °F -16.6 °F 20% 30.36 in 10.0 mi NNE 15.0 mph - N/A   Overcast
6:15 PM 19.4 °F 4.5 °F -14.8 °F 21% 30.36 in 10.0 mi NNE 17.3 mph - N/A   Overcast
6:35 PM 19.4 °F 6.0 °F -14.8 °F 21% 30.37 in 10.0 mi NE 13.8 mph - N/A   Overcast
6:55 PM 19.4 °F 5.5 °F -14.8 °F 21% 30.37 in 10.0 mi NNE 15.0 mph 19.6 mph N/A   Overcast
7:15 PM 19.4 °F 6.0 °F -14.8 °F 21% 30.37 in 10.0 mi NNE 13.8 mph - N/A   Overcast
7:35 PM 19.4 °F 6.0 °F -14.8 °F 21% 30.38 in 10.0 mi NNE 13.8 mph - N/A   Overcast
7:55 PM 19.4 °F 4.5 °F -14.8 °F 21% 30.38 in 10.0 mi NNE 17.3 mph - N/A   Overcast
8:15 PM 19.4 °F 5.5 °F -13.0 °F 23% 30.39 in 10.0 mi NNE 15.0 mph - N/A   Overcast
8:35 PM 19.4 °F 6.0 °F -13.0 °F 23% 30.39 in 10.0 mi NNE 13.8 mph - N/A   Overcast
8:55 PM 19.4 °F 5.0 °F -9.4 °F 28% 30.39 in 10.0 mi NNE 16.1 mph - N/A   Overcast
9:15 PM 19.4 °F 5.5 °F -7.6 °F 30% 30.39 in 10.0 mi NE 15.0 mph - N/A   Overcast
9:35 PM 17.6 °F 1.7 °F -0.4 °F 45% 30.40 in 10.0 mi NNE 18.4 mph - N/A   Overcast
9:55 PM 17.6 °F 3.7 °F 1.4 °F 49% 30.40 in 10.0 mi NNE 13.8 mph - N/A   Overcast
10:15 PM 17.6 °F 4.3 °F 1.4 °F 49% 30.41 in 10.0 mi NNE 12.7 mph - N/A   Overcast
10:35 PM 17.6 °F 5.0 °F 3.2 °F 53% 30.41 in 10.0 mi NNE 11.5 mph - N/A   Overcast
10:55 PM 17.6 °F 6.4 °F 3.2 °F 53% 30.42 in 10.0 mi North 9.2 mph - N/A   Overcast
11:15 PM 17.6 °F 5.0 °F 3.2 °F 53% 30.42 in 10.0 mi North 11.5 mph - N/A   Overcast
11:35 PM 17.6 °F 5.7 °F 3.2 °F 53% 30.42 in 10.0 mi North 10.4 mph - N/A   Overcast
11:55 PM 17.6 °F 7.3 °F 3.2 °F 53% 30.43 in 10.0 mi North 8.1 mph - N/A   Overcast